{"data":{"norad_id":57809,"epoch":"2026-09-20T05:30:15.064128Z","epoch_age_seconds":154700,"freshness":"FRESH","line1":"1 57809U 23138B   26263.22934102  .00000854  00000+0  40546-4 0  9997","line2":"2 57809  42.9939 215.2732 0000418   8.5244 351.5614 15.27578430168490","mean_motion":15.2757843,"eccentricity":4.18e-5,"inclination_deg":42.9939,"raan_deg":215.2732,"arg_perigee_deg":8.5244,"mean_anomaly_deg":351.5614,"bstar":4.0546e-5,"rev_number":16849,"period_min":94.266845598232,"perigee_km":482.76699941316,"apogee_km":483.34059496381,"semimajor_km":6861.1907971885,"source":"CELESTRAK","updated_at":"2026-09-21T09:00:33.706730Z"}}